Regional Weather Roundup
Issued by NWS Kansas City/Pleasant Hill, MO

Home | Current Version | Previous Version | Graphics & Text | Print | Product List | Glossary Off
Versions: 1 2 3 4 5 6 7 8 9 10 11 12 13 14 15 16 17 18 19 20 21 22 23 24 25 26 27 28 29 30 31 32 33 34 35 36 37 38 39 40 41 42 43 44 45 46 47 48 49 50

000
ASUS43 KEAX 181311
RWREAX

WEATHER ROUNDUP FOR EASTERN KANSAS AND NORTHWEST MISSOURI
NATIONAL WEATHER SERVICE KANSAS CITY/PLEASANT HILL MO
800 AM CDT THU SEP 18 2014

KSZ040-057-103>105-MOZ028-029-037-043-181400-
...KANSAS CITY METROPOLITAN AREA...

CITY           SKY/WX    TMP DP  RH WIND       PRES   REMARKS
K.C. INTL      FOG       59  59 100 E10       30.01R VSB 1/2
K.C. DOWNTOWN  CLOUDY    62  59  90 E10       30.00R FOG
LEES SUMMIT    FOG       60  59  96 E13       30.02S VSB 3/4
OLATHE - IXD   CLOUDY    62  61  96 E9        29.99S FOG
OLATHE - OJC   CLOUDY    60  60 100 E8        29.99S FOG
LAWRENCE       CLOUDY    62  60  93 E9        29.99R FOG

$$

MOZ001>008-011>017-020>025-030>033-038>040-044>046-053-054-181400-
...NORTHERN AND CENTRAL MISSOURI...

CITY           SKY/WX    TMP DP  RH WIND       PRES   REMARKS
ST. JOSEPH     CLOUDY    60  59  96 E6        30.02R FOG
MOSBY          CLOUDY    59  59 100 E6        30.02S FOG
WHITEMAN AFB   FOG       61  60  98 NE6       30.02S VSB 1
CLINTON        CLOUDY    64  64 100 CALM      30.01S FOG
SEDALIA        FOG       61  59  93 E6        30.04R VSB 3/4
WARSAW         NOT AVBL
CHILLICOTHE      N/A     60  57  89 VRB5      30.06R
KIRKSVILLE     FOG       54  54 100 E6        30.08R VSB 1/4

$$

MOZ041-047>049-056>058-063>065-088>090-097-181400-
...EASTERN AND SOUTHERN MISSOURI...

CITY           SKY/WX    TMP DP  RH WIND       PRES   REMARKS
ST. LOUIS INTL CLOUDY    63  56  78 E3        30.05R
SPIRIT OF STL  CLOUDY    62  57  83 VRB3      30.04R
COLUMBIA       CLOUDY    60  59  96 E7          N/A  FOG
JEFFERSON CITY CLOUDY    61  59  93 E3        30.04R FOG
MEXICO         CLOUDY   N/A N/A N/A CALM      30.06R FOG
HANNIBAL       CLOUDY    55  54  94 CALM      30.08R FOG
ROLLA          FOG       58  58 100 E7        30.03R VSB 1/4
LEBANON        CLOUDY    63  61  94 CALM      30.04R FOG
OSAGE BEACH    CLOUDY    63  59  88 E3        30.03R
SPRINGFIELD    CLOUDY    65  63  93 NE9       29.99S
BRANSON        LGT RAIN  64  63  94 N10       30.01R FOG
NEVADA         CLOUDY    63  63 100 SE8       29.99F
JOPLIN         RAIN      64  62  93 S25       29.97F FOG
WEST PLAINS    FOG       60  59  96 N5        30.03R VSB 1/4

$$

IAZ060-094-KSZ022-034>040-054-083-096-NEZ052-066-093-181400-
...KANSAS...SOUTHEAST NEBRASKA AND IOWA...

CITY           SKY/WX    TMP DP  RH WIND       PRES   REMARKS
TOPEKA         CLOUDY    64  63  96 E9        29.98R FOG
MANHATTAN      CLOUDY    66  63  90 E9        29.97R
EMPORIA        TSTM      64  63  96 S5        29.95R
CHANUTE        LGT RAIN  66  62  87 S25G33    29.92F
WICHITA        MOCLDY    70  63  78 S26G32    29.94R
OMAHA          CLOUDY    60  57  89 SE9       30.03R FOG
LINCOLN        CLOUDY    63  61  93 SE13      30.01R FOG
FALLS CITY     PTCLDY    60  60 100 E7        30.00R FOG
LAMONI         FOG       55  55 100 E5        30.06R VSB 1/4
DES MOINES     FOG       56  55  97 S7        30.07R VSB 1/8

$$



USA.gov is the U.S. government's official web portal to all federal, state and local government web resources and services.